This is the latest recevied weather packets stored in our database for station/object PA5MB-15. If no packets are shown the sender has not sent any weather packets the latest 10 day(s).
| Time | Temp. | Humidity | Pressure | Rain* | Wind** | Luminosity | Snow |
|---|---|---|---|---|---|---|---|
| 1777998032 | 14.44° C | 78% | 1010.6 hPa | 0 mm | - | 20 W/m² | - |
| 1777997723 | 14.44° C | 78% | 1010.7 hPa | 0 mm | - | 19 W/m² | - |
| 1777997436 | 14.44° C | 79% | 1010.7 hPa | 0 mm | - | 22 W/m² | - |
| 1777997143 | 14.44° C | 79% | 1010.8 hPa | 0 mm | - | 20 W/m² | - |
| 1777996833 | 14.44° C | 78% | 1010.7 hPa | 0 mm | - | 26 W/m² | - |
| 1777996531 | 14.44° C | 78% | 1010.7 hPa | 0 mm | - | 30 W/m² | - |
| 1777996231 | 14.44° C | 78% | 1010.8 hPa | 0 mm | - | 27 W/m² | - |
| 1777995930 | 14.44° C | 78% | 1010.8 hPa | 0 mm | - | 22 W/m² | - |
| 1777995631 | 14.44° C | 78% | 1010.8 hPa | 0 mm | - | 28 W/m² | - |
| 1777995331 | 15° C | 77% | 1010.8 hPa | 0 mm | - | 35 W/m² | - |
| 1777995031 | 15° C | 76% | 1010.8 hPa | 0 mm | - | 38 W/m² | - |
| 1777994731 | 15° C | 77% | 1010.9 hPa | 0 mm | - | 43 W/m² | - |
| 1777994431 | 14.44° C | 77% | 1011 hPa | 0 mm | - | 45 W/m² | - |
| 1777994131 | 14.44° C | 79% | 1011 hPa | 0 mm | - | 44 W/m² | - |
| 1777993823 | 14.44° C | 79% | 1011.1 hPa | 0 mm | - | 45 W/m² | - |
| 1777993531 | 13.89° C | 79% | 1011.1 hPa | 0 mm | - | 49 W/m² | - |
| 1777993231 | 13.89° C | 79% | 1011.2 hPa | 0 mm | - | 46 W/m² | - |
| 1777992934 | 14.44° C | 79% | 1011.2 hPa | 0 mm | - | 52 W/m² | - |
| 1777992632 | 13.89° C | 80% | 1011.2 hPa | 0 mm | - | 47 W/m² | - |
| 1777992331 | 13.89° C | 80% | 1011.2 hPa | 0 mm | - | 46 W/m² | - |
| 1777992021 | 13.33° C | 82% | 1011.2 hPa | 0 mm | - | 41 W/m² | - |
| 1777991731 | 12.78° C | 83% | 1011.3 hPa | 0 mm | - | 41 W/m² | - |
| 1777991431 | 12.78° C | 85% | 1011.3 hPa | 0 mm | - | 37 W/m² | - |
| 1777991143 | 12.22° C | 86% | 1011.5 hPa | 0 mm | - | 12 W/m² | - |
| 1777990831 | 12.22° C | 86% | 1011.5 hPa | 0 mm | - | 12 W/m² | - |
* Rain latest hour (hover to see other rain measurements)
** Current wind speed in m/s (hover to see current wind gust speed)